Kununurra, Western Australia

1:15 AM AWST on August 29, 2016 (GMT +0800)
Kununurra

Weather History for YPKU - December, 2012

Change the Weather History Date:

Wednesday, December 5, 2012

  Actual Average Record
Temperature  
Mean Temperature 90 °F -  
Max Temperature 105 °F - - ()
Min Temperature 76 °F - - ()
Cooling Degree Days 26    
Growing Degree Days 40 (Base 50)    
Moisture  
Dew Point 69 °F    
Average Humidity 52    
Maximum Humidity 94    
Minimum Humidity 16    
Precipitation  
Precipitation 0.00 in - - ()
Sea Level Pressure  
Sea Level Pressure 29.76 in    
Wind  
Wind Speed 6 mph ()    
Max Wind Speed 14 mph    
Max Gust Speed -    
Visibility 6.3 miles    
Events      
T = Trace of Precipitation, MM = Missing Value Source: Averaged Metar Reports

Daily Weather History Graph

Daily Weather History Graph

Search for Another Location

Airport or City:

Trip Planner

Search our weather history database for the weather conditions in past years. The results will help you decide how hot, cold, wet, or windy it might be!

Date:

Astronomy

Dec. 05, 2012 Rise Set
Actual Time 4:45 AM AWST 5:46 PM AWST
Civil Twilight 4:21 AM AWST 6:10 PM AWST
Nautical Twilight 3:53 AM AWST 6:38 PM AWST
Astronomical Twilight 3:25 AM AWST 7:06 PM AWST
Moon 10:39 PM AWST (12/5) 9:59 AM AWST (12/5)
Length of Visible Light 13h 48m
Length of Day
13h 01m
Waning Gibbous, 65% of the Moon is Illuminated
Dec 5
Waning Gibbous
Dec 6
Last Quarter
Dec 13
New
Dec 20
First Quarter
Dec 28
Full

Hourly Weather History & Observations

Time (AWST) Temp. Heat Index Dew Point Humidity Pressure Visibility Wind Dir Wind Speed Gust Speed Precip Events Conditions
12:00 AM 86 °F - 73 °F 57% 29.73 in - SSW 3.5 mph - -  
12:00 AM 86.0 °F 93.4 °F 73.4 °F 66% 29.74 in 6.2 mi SSW 3.5 mph - N/A   Scattered Clouds
12:30 AM 82.4 °F 90.9 °F 77.0 °F 84% 29.74 in 5.6 mi NE 8.1 mph - N/A   Overcast
1:00 AM 82.4 °F 90.9 °F 77.0 °F 84% 29.77 in 6.2 mi East 11.5 mph - N/A   Mostly Cloudy
1:20 AM 77.0 °F - 73.4 °F 89% 29.77 in 3.7 mi NNE 13.8 mph - N/A   Overcast
1:30 AM 78.8 °F - 73.4 °F 83% 29.74 in 5.0 mi North 9.2 mph - N/A   Overcast
1:39 AM 78.8 °F - 71.6 °F 78% 29.74 in 6.2 mi NW 12.7 mph - N/A   Mostly Cloudy
2:00 AM 79 °F - 73 °F 76% 29.72 in - WSW 12.7 mph - -  
2:00 AM 78.8 °F - 73.4 °F 83% 29.71 in 6.2 mi WSW 12.7 mph - N/A   Mostly Cloudy
2:30 AM 80.6 °F 85.4 °F 73.4 °F 79% 29.74 in 6.2 mi SSE 6.9 mph - N/A   Scattered Clouds
3:00 AM 78 °F - 75 °F 86% 29.75 in - NNW 6.9 mph - -  
3:00 AM 78.8 °F - 75.2 °F 89% 29.74 in 6.2 mi NNW 6.9 mph - N/A   Unknown
3:30 AM 77.0 °F - 75.2 °F 94% 29.77 in 6.2 mi NW 5.8 mph - N/A   Unknown
4:00 AM 77.0 °F - 75.2 °F 94% 29.77 in 6.2 mi NW 4.6 mph - N/A   Unknown
4:30 AM 77.0 °F - 75.2 °F 94% 29.77 in 6.2 mi Calm Calm - N/A   Unknown
5:00 AM 79 °F - 74 °F 81% 29.79 in - NW 1.2 mph - -  
5:00 AM 78.8 °F - 73.4 °F 83% 29.77 in 6.2 mi NW 1.2 mph - N/A   Unknown
5:30 AM 80.6 °F 86.2 °F 75.2 °F 84% 29.80 in 6.2 mi NNW 4.6 mph - N/A   Unknown
6:00 AM 83 °F - 74 °F 68% 29.81 in 6 mi Calm Calm - -   Partly Cloudy
6:00 AM 82.4 °F 88.2 °F 73.4 °F 74% 29.80 in 6.2 mi Calm Calm - N/A   Unknown
6:30 AM 84.2 °F 90.9 °F 73.4 °F 70% 29.80 in 6.2 mi WSW 6.9 mph - N/A   Unknown
7:00 AM 86.0 °F 95.1 °F 75.2 °F 70% 29.83 in 6.2 mi NNW 5.8 mph - N/A   Unknown
7:30 AM 87.8 °F 95.6 °F 73.4 °F 62% 29.83 in 6.2 mi WNW 4.6 mph - N/A   Unknown
8:00 AM 90 °F - 73 °F 49% 29.83 in - WSW 4.6 mph - -  
8:00 AM 89.6 °F 98.2 °F 73.4 °F 59% 29.83 in 6.2 mi WSW 4.6 mph - N/A   Unknown
8:30 AM 91.4 °F 100.1 °F 73.4 °F 55% 29.83 in 6.2 mi SSW 5.8 mph - N/A   Unknown
9:00 AM 95 °F - 67 °F 30% 29.82 in 12 mi South 5.8 mph - -   Partly Cloudy
9:00 AM 95.0 °F 99.5 °F 68.0 °F 41% 29.83 in 6.2 mi South 5.8 mph - N/A   Unknown
9:30 AM 96.8 °F 100.7 °F 66.2 °F 37% 29.80 in 6.2 mi SE 8.1 mph - N/A   Unknown
10:00 AM 98.6 °F 98.5 °F 59.0 °F 27% 29.80 in 6.2 mi ESE 9.2 mph - N/A   Unknown
10:30 AM 98.6 °F 98.5 °F 59.0 °F 27% 29.80 in 6.2 mi ESE 8.1 mph - N/A   Unknown
11:00 AM 99 °F - 61 °F 19% 29.78 in - ESE 5.8 mph - -  
11:00 AM 98.6 °F 99.4 °F 60.8 °F 29% 29.77 in 6.2 mi ESE 5.8 mph - N/A   Unknown
11:30 AM 100.4 °F 102.4 °F 62.6 °F 29% 29.77 in 6.2 mi ESE 4.6 mph - N/A   Unknown
12:00 PM 102 °F - 62 °F 18% 29.76 in - ESE 5.8 mph - -  
12:00 PM 102.2 °F 104.2 °F 62.6 °F 27% 29.74 in 6.2 mi ESE 5.8 mph - N/A   Unknown
12:30 PM 102.2 °F 104.2 °F 62.6 °F 27% 29.74 in 6.2 mi East 5.8 mph - N/A   Unknown
1:00 PM 102.2 °F 103.6 °F 60.8 °F 26% 29.74 in 6.2 mi ENE 4.6 mph - N/A   Unknown
1:30 PM 104.0 °F 106.6 °F 62.6 °F 26% 29.71 in 6.2 mi North 4.6 mph - N/A   Unknown
2:00 PM 104 °F - 60 °F 16% 29.71 in - North 5.8 mph - -  
2:00 PM 104.0 °F 105.3 °F 60.8 °F 24% 29.71 in 6.2 mi North 5.8 mph - N/A   Unknown
2:30 PM 105.8 °F 106.8 °F 59.0 °F 22% 29.71 in 6.2 mi ESE 8.1 mph - N/A   Unknown
3:00 PM 104 °F - 61 °F 16% 29.69 in 12 mi West 6.9 mph - -   Partly Cloudy
3:00 PM 104.0 °F 105.3 °F 60.8 °F 24% 29.68 in 6.2 mi West 6.9 mph - N/A   Unknown
3:30 PM 104.0 °F 105.3 °F 60.8 °F 24% 29.68 in 6.2 mi ESE 6.9 mph - N/A   Unknown
4:00 PM 104.0 °F 105.3 °F 60.8 °F 24% 29.68 in 6.2 mi South 3.5 mph - N/A   Unknown
4:30 PM 102.2 °F 104.2 °F 62.6 °F 27% 29.68 in 6.2 mi NNE 3.5 mph - N/A   Unknown
5:00 PM 103 °F - 63 °F 18% 29.71 in - ESE 5.8 mph - -  
5:00 PM 102.2 °F 104.2 °F 62.6 °F 27% 29.71 in 6.2 mi ESE 5.8 mph - N/A   Unknown
5:30 PM 100.4 °F 104.9 °F 66.2 °F 33% 29.71 in 6.2 mi SE 6.9 mph - N/A   Unknown
6:00 PM 98 °F - 67 °F 27% 29.72 in - East 6.9 mph - -  
6:00 PM 96.8 °F 100.7 °F 66.2 °F 37% 29.71 in 6.2 mi East 6.9 mph - N/A   Unknown
6:30 PM 96.8 °F 101.8 °F 68.0 °F 39% 29.71 in 6.2 mi ENE 11.5 mph - N/A   Unknown
7:00 PM 93.2 °F 98.8 °F 69.8 °F 46% 29.74 in 6.2 mi NNE 8.1 mph - N/A   Unknown
7:30 PM 91.4 °F 96.8 °F 69.8 °F 49% 29.77 in 6.2 mi NE 8.1 mph - N/A   Unknown
8:00 PM 90 °F - 71 °F 44% 29.80 in - North 6.9 mph - -  
8:00 PM 89.6 °F 96.2 °F 71.6 °F 55% 29.80 in 6.2 mi North 6.9 mph - N/A   Unknown
8:30 PM 89.6 °F 96.2 °F 71.6 °F 55% 29.80 in 6.2 mi NE 6.9 mph - N/A   Unknown
10:00 PM 87.8 °F 97.6 °F 75.2 °F 66% 29.80 in 6.2 mi NE 8.1 mph - N/A   Scattered Clouds
10:30 PM 87.8 °F 97.6 °F 75.2 °F 66% 29.80 in 6.2 mi NNE 10.4 mph - N/A   Mostly Cloudy
11:00 PM 87 °F - 76 °F 64% 29.80 in - North 8.1 mph - -  
11:00 PM 86.0 °F 96.9 °F 77.0 °F 74% 29.80 in 6.2 mi North 8.1 mph - N/A   Scattered Clouds
11:30 PM 86.0 °F 96.9 °F 77.0 °F 74% 29.77 in 6.2 mi North 8.1 mph - N/A   Unknown